GW4027 Weather Reports


time (UTC)temp
C
wind
direction
speed
KPH
gust
KPH
rain 1hr
cm
rain 24hr
cm
rain mn
cm
humidity
%
barometer
mb
20260506031802 5 14 0.0 1.6 0.00 0.00 0.00 87 1011.5
20260506030923 6 17 1.6 3.2 0.00 0.00 0.00 86 1011.4
20260506030002 6 28 1.6 6.4 0.00 0.00 0.00 85 1011.4
20260506025402 6 16 1.6 6.4 0.00 0.00 0.00 84 1011.3
20260506024523 6 39 1.6 6.4 0.00 0.00 0.00 85 1011.6
20260506023623 6 31 1.6 4.8 0.00 0.00 0.00 85 1011.5
20260506022702 6 39 1.6 4.8 0.00 0.00 0.00 84 1011.6
20260506021802 6 37 1.6 6.4 0.00 0.00 0.00 85 1011.6
20260506020902 6 51 1.6 3.2 0.00 0.00 0.00 85 1011.7
20260506020002 6 47 1.6 3.2 0.00 0.00 0.00 86 1011.6
20260506015402 6 51 1.6 4.8 0.00 0.00 0.00 86 1011.8
20260506014502 6 27 1.6 3.2 0.00 0.00 0.00 86 1011.8
20260506013602 6 35 1.6 4.8 0.00 0.00 0.00 86 1011.9
20260506012723 6 22 1.6 3.2 0.00 0.00 0.00 87 1012.0
20260506011802 6 8 1.6 4.8 0.00 0.00 0.00 87 1012.0
20260506010902 6 27 0.0 1.6 0.00 0.00 0.00 87 1012.0
20260506010002 6 172 0.0 3.2 0.00 0.00 0.00 87 1011.8
20260506005402 6 156 0.0 1.6 0.00 0.00 0.00 87 1011.8
20260506004502 6 199 0.0 1.6 0.00 0.00 0.00 88 1012.0
20260506003602 6 208 0.0 1.6 0.00 0.00 0.00 88 1012.2
20260506002702 6 204 0.0 1.6 0.00 0.00 0.00 88 1012.0
20260506001802 6 200 0.0 1.6 0.00 0.00 0.00 88 1012.2
20260506000923 6 190 0.0 1.6 0.00 0.00 0.00 88 1012.1
20260506000002 6 196 0.0 1.6 0.00 0.00 0.00 88 1012.2
20260505235402 6 194 0.0 1.6 0.00 0.00 0.00 88 1012.2
20260505234502 6 191 0.0 1.6 0.00 0.00 0.00 88 1012.4
20260505233623 6 195 0.0 3.2 0.00 0.00 0.00 87 1012.2
20260505232702 6 200 0.0 1.6 0.00 0.00 0.00 88 1012.3
20260505231802 6 189 0.0 1.6 0.00 0.00 0.00 88 1012.4
20260505230902 6 192 0.0 1.6 0.00 0.00 0.00 87 1012.4
20260505230002 6 206 0.0 3.2 0.00 0.00 0.00 86 1012.5
20260505225402 6 205 1.6 3.2 0.00 0.00 0.00 86 1012.5
20260505224523 6 196 0.0 3.2 0.00 0.00 0.00 87 1012.6
20260505223602 6 196 1.6 4.8 0.00 0.00 0.00 86 1012.6
20260505222702 6 192 1.6 3.2 0.00 0.00 0.00 86 1012.5
20260505221802 6 199 1.6 4.8 0.00 0.00 0.00 85 1012.6
20260505220902 6 195 0.0 1.6 0.00 0.00 0.00 85 1012.4
20260505220002 6 199 0.0 1.6 0.00 0.00 0.00 84 1012.7
20260505215402 6 205 0.0 1.6 0.00 0.00 0.00 85 1012.7
20260505214502 6 203 0.0 1.6 0.00 0.00 0.00 84 1012.5
20260505213602 6 200 0.0 1.6 0.00 0.00 0.00 84 1012.6
20260505212723 6 194 0.0 1.6 0.00 0.00 0.00 84 1012.6
20260505211802 6 178 0.0 1.6 0.00 0.00 0.00 84 1012.5
20260505210923 6 185 0.0 1.6 0.00 0.00 0.00 83 1012.4
20260505210002 6 201 0.0 3.2 0.00 0.00 0.00 83 1012.4
20260505205402 6 199 0.0 3.2 0.00 0.00 0.00 84 1012.6
20260505204502 6 201 0.0 1.6 0.00 0.00 0.00 84 1012.5
20260505203602 6 0 0.0 0.0 0.00 0.00 0.00 84 1012.4
20260505202702 6 166 0.0 3.2 0.00 0.00 0.00 83 1012.4
20260505201802 7 145 0.0 1.6 0.00 0.00 0.00 82 1012.6
20260505200902 7 198 0.0 1.6 0.00 0.00 0.00 81 1012.5
20260505200002 7 185 0.0 1.6 0.00 0.00 0.00 80 1012.3
20260505195402 7 204 0.0 1.6 0.00 0.00 0.00 80 1012.3
20260505194502 7 189 0.0 1.6 0.00 0.00 0.00 79 1012.4
20260505193602 8 200 0.0 1.6 0.00 0.00 0.00 79 1012.0
20260505192702 8 205 0.0 1.6 0.00 0.00 0.00 79 1012.2
20260505191802 8 0 0.0 0.0 0.00 0.00 0.00 78 1012.4
20260505190923 8 0 0.0 0.0 0.00 0.00 0.00 76 1012.0
20260505190023 9 213 0.0 1.6 0.00 0.00 0.00 75 1012.1
20260505185423 9 213 0.0 1.6 0.00 0.00 0.00 74 1012.0
20260505184523 9 189 0.0 1.6 0.00 0.00 0.00 71 1012.2
20260505183602 9 167 0.0 1.6 0.00 0.00 0.00 71 1012.0
20260505182702 10 357 0.0 1.6 0.00 0.00 0.00 71 1012.1
20260505181823 10 292 0.0 1.6 0.00 0.00 0.00 69 1012.2
20260505180902 10 10 0.0 3.2 0.00 0.00 0.00 70 1012.2
20260505180002 10 201 0.0 1.6 0.00 0.00 0.00 69 1011.9
20260505175402 10 232 0.0 1.6 0.00 0.00 0.00 67 1012.3
20260505174523 10 240 0.0 1.6 0.00 0.00 0.00 67 1012.1
20260505173623 10 280 0.0 3.2 0.00 0.00 0.00 67 1012.1
20260505172702 10 199 0.0 1.6 0.00 0.00 0.00 68 1012.2
20260505171802 10 352 0.0 1.6 0.00 0.00 0.00 65 1012.2
20260505170902 10 0 0.0 0.0 0.00 0.00 0.00 64 1012.3
20260505170002 10 1 0.0 3.2 0.00 0.00 0.00 65 1012.3
20260505165402 10 1 0.0 3.2 0.00 0.00 0.00 65 1012.4
20260505164502 10 360 1.6 3.2 0.00 0.00 0.00 64 1012.2
20260505163602 11 359 1.6 9.7 0.00 0.00 0.00 66 1012.4
20260505162702 10 142 0.0 3.2 0.00 0.00 0.00 66 1012.5
20260505161823 10 326 1.6 4.8 0.00 0.00 0.00 67 1012.6
20260505160923 10 178 1.6 4.8 0.00 0.00 0.00 71 1012.5
20260505152702 10 9 3.2 6.4 0.00 0.00 0.00 77 1012.7
20260505151802 10 13 3.2 9.7 0.00 0.00 0.00 78 1012.5
20260505150902 10 19 1.6 9.7 0.00 0.00 0.00 78 1012.8
20260505124502 10 31 3.2 9.7 0.00 0.00 0.00 79 1012.7
20260505123602 10 10 3.2 6.4 0.00 0.00 0.00 80 1012.8
20260505122723 10 34 3.2 9.7 0.00 0.00 0.00 81 1012.7
20260505121802 10 9 3.2 11.3 0.00 0.00 0.00 80 1012.6
20260505120903 10 9 3.2 9.7 0.00 0.00 0.00 81 1012.5
20260505120003 10 12 1.6 6.4 0.00 0.00 0.00 82 1012.6
20260505115402 10 343 1.6 4.8 0.00 0.00 0.00 83 1012.7
20260505114524 10 11 3.2 9.7 0.00 0.00 0.00 84 1012.8
20260505113602 10 360 3.2 11.3 0.00 0.00 0.00 84 1012.9
20260505112703 10 6 3.2 9.7 0.00 0.00 0.00 85 1013.1
20260505111803 10 11 4.8 9.7 0.00 0.00 0.00 83 1012.8
20260505110903 10 6 3.2 9.7 0.00 0.00 0.00 82 1012.8
20260505101824 11 29 3.2 6.4 0.00 0.00 0.00 74 1012.7
20260505100902 10 23 3.2 14.5 0.00 0.00 0.00 77 1012.9
20260505100024 10 17 1.6 3.2 0.00 0.00 0.00 81 1013.0
20260505095403 10 33 1.6 3.2 0.00 0.00 0.00 81 1013.0
20260505094503 10 31 1.6 4.8 0.00 0.00 0.00 81 1012.9
20260505093602 10 22 3.2 6.4 0.00 0.00 0.00 81 1013.0
20260505092702 10 6 1.6 4.8 0.00 0.00 0.00 81 1012.9
20260505091803 10 29 1.6 4.8 0.00 0.00 0.00 81 1013.1
20260505090902 10 12 1.6 4.8 0.00 0.00 0.00 81 1013.1
20260505090002 10 10 3.2 9.7 0.00 0.00 0.00 81 1012.9
20260505085402 10 16 3.2 6.4 0.00 0.00 0.00 81 1013.0
20260505084502 10 16 3.2 9.7 0.00 0.00 0.00 81 1013.0
20260505083623 10 349 3.2 9.7 0.00 0.00 0.00 81 1013.0
20260505082723 10 8 3.2 6.4 0.00 0.00 0.00 81 1013.0
20260505081802 10 17 3.2 6.4 0.00 0.00 0.00 81 1013.1
20260505080903 10 24 3.2 6.4 0.00 0.00 0.00 81 1013.0
20260505080002 9 21 3.2 9.7 0.00 0.00 0.00 81 1012.8
20260505075402 9 26 3.2 6.4 0.00 0.00 0.00 81 1012.8
20260505074502 9 17 3.2 6.4 0.00 0.00 0.00 80 1012.9
20260505073603 10 5 3.2 6.4 0.00 0.00 0.00 80 1012.9
20260505072703 9 1 3.2 6.4 0.00 0.00 0.00 79 1012.7
20260505071802 10 356 3.2 6.4 0.00 0.00 0.00 80 1012.9
20260505070903 9 6 3.2 6.4 0.00 0.00 0.00 80 1012.7
20260505070002 9 22 3.2 6.4 0.00 0.00 0.00 81 1012.7
20260505065403 9 28 3.2 6.4 0.00 0.00 0.00 81 1012.8
20260505064503 9 13 3.2 11.3 0.00 0.00 0.00 82 1012.9
20260505063603 9 12 1.6 4.8 0.00 0.00 0.00 82 1012.9
20260505062702 8 17 1.6 6.4 0.00 0.00 0.00 83 1012.8
20260505061802 8 6 3.2 9.7 0.00 0.00 0.00 84 1012.9
20260505060902 8 49 3.2 6.4 0.00 0.00 0.00 84 1012.8
20260505060003 8 3 1.6 6.4 0.00 0.00 0.00 85 1012.6
20260505055402 8 32 1.6 6.4 0.00 0.00 0.00 86 1012.7
20260505054502 8 42 1.6 6.4 0.00 0.00 0.00 86 1012.6
20260505053624 8 6 3.2 11.3 0.00 0.00 0.00 86 1012.7
20260505052724 8 32 3.2 6.4 0.00 0.00 0.00 87 1012.7
20260505051803 8 31 3.2 9.7 0.00 0.00 0.00 86 1012.5
20260505050903 8 10 1.6 6.4 0.00 0.00 0.00 86 1012.5
20260505040903 8 6 3.2 9.7 0.00 0.00 0.00 86 1012.4
20260505040003 8 22 3.2 9.7 0.00 0.00 0.00 87 1012.5
20260505035403 8 16 3.2 9.7 0.00 0.00 0.00 87 1012.6
20260505034503 8 6 3.2 6.4 0.00 0.00 0.00 87 1012.5
20260505033603 8 3 3.2 11.3 0.00 0.00 0.00 86 1012.5
20260505032702 8 13 3.2 11.3 0.00 0.00 0.00 86 1012.5